| time (UTC) | temp F | wind direction | speed MPH | gust MPH | rain 1hr in | rain 24hr in | rain mn in | humidity % | barometer mb |
| 20260505223024 | 84 | 167 | 6.0 | 13.0 | 0.00 | 0.00 | 0.00 | 74 | 1005.7 |
| 20260505221535 | 84 | 195 | 5.0 | 11.0 | 0.00 | 0.00 | 0.00 | 73 | 1005.6 |
| 20260505220032 | 84 | 172 | 4.0 | 13.0 | 0.00 | 0.00 | 0.00 | 74 | 1005.7 |
| 20260505214522 | 85 | 162 | 5.0 | 12.0 | 0.00 | 0.00 | 0.00 | 72 | 1005.7 |
| 20260505213034 | 85 | 184 | 6.0 | 11.0 | 0.00 | 0.00 | 0.00 | 73 | 1006.0 |
| 20260505211531 | 85 | 226 | 3.0 | 14.0 | 0.00 | 0.00 | 0.00 | 72 | 1006.1 |
| 20260505210030 | 85 | 150 | 5.0 | 11.0 | 0.00 | 0.00 | 0.00 | 72 | 1006.2 |
| 20260505204526 | 85 | 184 | 5.0 | 11.0 | 0.00 | 0.00 | 0.00 | 72 | 1006.5 |
| 20260505203043 | 85 | 176 | 3.0 | 13.0 | 0.00 | 0.00 | 0.00 | 72 | 1006.6 |
| 20260505201540 | 85 | 217 | 5.0 | 11.0 | 0.00 | 0.00 | 0.00 | 72 | 1006.5 |
| 20260505200056 | 84 | 229 | 5.0 | 13.0 | 0.00 | 0.00 | 0.00 | 72 | 1006.6 |
| 20260505194531 | 85 | 175 | 5.0 | 10.0 | 0.00 | 0.00 | 0.00 | 72 | 1006.7 |
| 20260505193024 | 84 | 146 | 4.0 | 10.0 | 0.00 | 0.00 | 0.00 | 73 | 1007.1 |
| 20260505191607 | 84 | 253 | 6.0 | 13.0 | 0.00 | 0.00 | 0.00 | 73 | 1007.2 |
| 20260505190029 | 84 | 207 | 8.0 | 17.0 | 0.00 | 0.00 | 0.00 | 72 | 1007.0 |
| 20260505184549 | 83 | 153 | 6.0 | 12.0 | 0.00 | 0.00 | 0.00 | 73 | 1007.2 |
| 20260505183034 | 83 | 205 | 9.0 | 18.0 | 0.00 | 0.00 | 0.00 | 73 | 1007.4 |
| 20260505181530 | 83 | 197 | 6.0 | 14.0 | 0.00 | 0.00 | 0.00 | 74 | 1007.4 |
| 20260505180024 | 83 | 198 | 6.0 | 13.0 | 0.00 | 0.00 | 0.00 | 74 | 1007.5 |
| 20260505174536 | 81 | 197 | 4.0 | 13.0 | 0.00 | 0.00 | 0.00 | 75 | 1007.9 |
| 20260505173033 | 81 | 215 | 7.0 | 16.0 | 0.00 | 0.00 | 0.00 | 75 | 1008.2 |
| 20260505171528 | 81 | 191 | 6.0 | 12.0 | 0.00 | 0.00 | 0.00 | 76 | 1008.1 |
| 20260505170036 | 80 | 234 | 4.0 | 12.0 | 0.00 | 0.00 | 0.00 | 77 | 1008.1 |
| 20260505164532 | 80 | 156 | 4.0 | 13.0 | 0.00 | 0.00 | 0.00 | 77 | 1008.1 |
| 20260505163027 | 79 | 229 | 4.0 | 12.0 | 0.00 | 0.00 | 0.00 | 79 | 1008.2 |
| 20260505161524 | 78 | 181 | 5.0 | 14.0 | 0.00 | 0.00 | 0.00 | 80 | 1008.2 |
| 20260505153054 | 76 | 203 | 3.0 | 10.0 | 0.00 | 0.00 | 0.00 | 83 | 1008.3 |
| 20260505151529 | 75 | 257 | 6.0 | 15.0 | 0.00 | 0.00 | 0.00 | 84 | 1008.3 |
| 20260505124539 | 71 | 208 | 3.0 | 9.0 | 0.00 | 0.00 | 0.00 | 88 | 1007.4 |
| 20260505123051 | 71 | 191 | 3.0 | 9.0 | 0.00 | 0.00 | 0.00 | 88 | 1007.3 |
| 20260505121526 | 71 | 175 | 5.0 | 10.0 | 0.00 | 0.00 | 0.00 | 88 | 1007.1 |
| 20260505120036 | 71 | 193 | 3.0 | 9.0 | 0.00 | 0.00 | 0.00 | 88 | 1006.9 |
| 20260505114532 | 72 | 205 | 4.0 | 10.0 | 0.00 | 0.00 | 0.00 | 88 | 1006.9 |
| 20260505113028 | 72 | 206 | 3.0 | 10.0 | 0.00 | 0.00 | 0.00 | 88 | 1006.7 |
| 20260505111525 | 72 | 226 | 3.0 | 11.0 | 0.00 | 0.00 | 0.00 | 88 | 1006.8 |
| 20260505101526 | 71 | 184 | 4.0 | 9.0 | 0.00 | 0.00 | 0.00 | 88 | 1006.9 |
| 20260505100037 | 71 | 180 | 3.0 | 6.0 | 0.00 | 0.00 | 0.00 | 88 | 1007.0 |
| 20260505094552 | 71 | 237 | 4.0 | 8.0 | 0.00 | 0.00 | 0.00 | 88 | 1007.0 |
| 20260505093030 | 71 | 203 | 3.0 | 8.0 | 0.00 | 0.00 | 0.00 | 88 | 1007.1 |
| 20260505091528 | 71 | 224 | 4.0 | 12.0 | 0.00 | 0.00 | 0.00 | 87 | 1007.1 |
| 20260505090045 | 71 | 215 | 4.0 | 14.0 | 0.00 | 0.00 | 0.00 | 87 | 1007.0 |
| 20260505084542 | 71 | 176 | 5.0 | 11.0 | 0.00 | 0.00 | 0.00 | 87 | 1007.1 |
| 20260505083029 | 71 | 144 | 4.0 | 11.0 | 0.00 | 0.00 | 0.00 | 87 | 1007.1 |
| 20260505081547 | 71 | 195 | 6.0 | 15.0 | 0.00 | 0.00 | 0.00 | 87 | 1007.3 |
| 20260505080044 | 71 | 217 | 8.0 | 15.0 | 0.00 | 0.00 | 0.00 | 86 | 1007.5 |
| 20260505074551 | 72 | 179 | 7.0 | 16.0 | 0.00 | 0.00 | 0.00 | 86 | 1007.8 |
| 20260505073027 | 72 | 238 | 3.0 | 16.0 | 0.00 | 0.00 | 0.00 | 86 | 1008.0 |
| 20260505071544 | 72 | 213 | 4.0 | 17.0 | 0.00 | 0.00 | 0.00 | 86 | 1008.3 |
| 20260505070058 | 72 | 194 | 6.0 | 13.0 | 0.00 | 0.00 | 0.00 | 85 | 1008.5 |
| 20260505064532 | 72 | 174 | 7.0 | 16.0 | 0.00 | 0.00 | 0.00 | 85 | 1008.5 |
| 20260505063028 | 72 | 205 | 4.0 | 11.0 | 0.00 | 0.00 | 0.00 | 85 | 1008.7 |
| 20260505061601 | 72 | 221 | 4.0 | 11.0 | 0.00 | 0.00 | 0.00 | 85 | 1008.9 |
| 20260505060055 | 72 | 153 | 4.0 | 11.0 | 0.00 | 0.00 | 0.00 | 85 | 1008.9 |
| 20260505054527 | 72 | 242 | 4.0 | 8.0 | 0.00 | 0.00 | 0.00 | 85 | 1009.1 |
| 20260505053037 | 72 | 221 | 2.0 | 7.0 | 0.00 | 0.00 | 0.00 | 84 | 1008.9 |
| 20260505051533 | 73 | 224 | 3.0 | 6.0 | 0.00 | 0.00 | 0.00 | 84 | 1009.0 |
| 20260505041532 | 74 | 203 | 4.0 | 9.0 | 0.00 | 0.00 | 0.00 | 81 | 1008.9 |
| 20260505040028 | 74 | 212 | 4.0 | 7.0 | 0.00 | 0.00 | 0.00 | 79 | 1008.8 |
| 20260505034523 | 74 | 191 | 4.0 | 10.0 | 0.00 | 0.00 | 0.00 | 78 | 1008.8 |
| 20260505033036 | 75 | 188 | 3.0 | 8.0 | 0.00 | 0.00 | 0.00 | 77 | 1008.7 |
| 20260505031534 | 76 | 182 | 4.0 | 11.0 | 0.00 | 0.00 | 0.00 | 75 | 1008.9 |
| 20260505030031 | 76 | 140 | 4.0 | 10.0 | 0.00 | 0.00 | 0.00 | 75 | 1008.9 |
| 20260505024552 | 76 | 221 | 5.0 | 11.0 | 0.00 | 0.00 | 0.00 | 74 | 1008.6 |
| 20260505023028 | 76 | 146 | 4.0 | 9.0 | 0.00 | 0.00 | 0.00 | 74 | 1008.3 |
| 20260505021540 | 76 | 171 | 3.0 | 9.0 | 0.00 | 0.00 | 0.00 | 74 | 1008.3 |
| 20260505020037 | 76 | 144 | 4.0 | 10.0 | 0.00 | 0.00 | 0.00 | 73 | 1008.2 |
| 20260505014534 | 77 | 158 | 5.0 | 10.0 | 0.00 | 0.00 | 0.00 | 73 | 1008.0 |
| 20260505013051 | 77 | 213 | 4.0 | 10.0 | 0.00 | 0.00 | 0.00 | 72 | 1007.8 |
| 20260505011536 | 77 | 149 | 4.0 | 11.0 | 0.00 | 0.00 | 0.00 | 72 | 1008.0 |
| 20260505010033 | 78 | 214 | 3.0 | 10.0 | 0.00 | 0.00 | 0.00 | 71 | 1008.1 |
| 20260505004530 | 78 | 112 | 4.0 | 9.0 | 0.00 | 0.00 | 0.00 | 70 | 1008.2 |
| 20260505003028 | 79 | 206 | 3.0 | 8.0 | 0.00 | 0.00 | 0.00 | 70 | 1008.2 |
| 20260505001526 | 80 | 149 | 4.0 | 13.0 | 0.00 | 0.00 | 0.00 | 68 | 1008.1 |
| 20260505000043 | 80 | 195 | 4.0 | 12.0 | 0.00 | 0.00 | 0.00 | 67 | 1008.3 |
| 20260504234558 | 80 | 141 | 6.0 | 13.0 | 0.00 | 0.00 | 0.00 | 67 | 1008.5 |
| 20260504233034 | 81 | 146 | 5.0 | 17.0 | 0.00 | 0.00 | 0.00 | 67 | 1008.6 |
| 20260504231527 | 81 | 193 | 6.0 | 15.0 | 0.00 | 0.00 | 0.00 | 66 | 1008.9 |
| 20260504230022 | 81 | 169 | 6.0 | 11.0 | 0.00 | 0.00 | 0.00 | 67 | 1008.9 |
| 20260504224556 | 80 | 194 | 4.0 | 13.0 | 0.00 | 0.00 | 0.00 | 68 | 1009.1 |